Tracking 28125 objects as of 3-Oct-2023
HD Live streaming from Space Station
objects crossing your sky now

STARLINK-5574

Track STARLINK-5574 now!
10-day predictions
STARLINK-5574 is classified as:


NORAD ID: 55362
Int'l Code: 2023-013AH
Perigee: 565.3 km
Apogee: 567.2 km
Inclination: 43.0 °
Period: 95.8 minutes
Semi major axis: 6937 km
RCS: Unknown
Launch date: January 26, 2023
Source: United States (US)
Launch site: AIR FORCE EASTERN TEST RANGE (AFETR)
Your satellite tracking list
Your tracking list is empty




NASA's NSSDC Master Catalog

Two Line Element Set (TLE):
1 55362U 23013AH  23275.30784975  .00001082  00000-0  95180-4 0  9990
2 55362  43.0033  79.9384 0001310 296.0112  64.0596 15.02528226 38501
Source of the keplerian elements: AFSPC